EW6612 Weather Reports


time (UTC)temp
C
wind
direction
speed
KPH
gust
KPH
rain 1hr
cm
rain 24hr
cm
rain mn
cm
humidity
%
barometer
mb
20180424155108 18 311 0.0 1.6 0.00 0.00 0.00 77 1017.1
20180424154102 19 350 0.0 1.6 0.00 0.00 0.00 76 1017.0
20180424153103 19 5 0.0 0.0 0.00 0.00 0.00 75 1017.1
20180424152102 19 0 0.0 1.6 0.00 0.00 0.00 75 1017.1
20180424151104 20 327 0.0 1.6 0.00 0.00 0.00 75 1017.0
20180424150103 20 334 0.0 1.6 0.00 0.00 0.00 73 1017.0
20180424145103 20 321 0.0 1.6 0.00 0.00 0.00 71 1017.1
20180424144101 21 28 0.0 1.6 0.00 0.00 0.00 71 1016.9
20180424143100 21 314 0.0 1.6 0.00 0.00 0.00 72 1016.9
20180424142102 21 333 0.0 33.8 0.00 0.00 0.00 72 1016.6
20180424141104 21 296 0.0 1.6 0.00 0.00 0.00 70 1016.6
20180424140107 22 327 0.0 22.5 0.00 0.00 0.00 69 1016.6
20180424135102 22 319 0.0 1.6 0.00 0.00 0.00 69 1016.6
20180424134100 22 322 0.0 1.6 0.00 0.00 0.00 71 1016.7
20180424133059 22 310 0.0 1.6 0.00 0.00 0.00 69 1016.7
20180424132056 22 300 0.0 0.0 0.00 0.00 0.00 70 1016.7
20180424131051 23 263 0.0 1.6 0.00 0.00 0.00 72 1016.6
20180424130052 22 316 0.0 0.0 0.00 0.00 0.00 70 1016.6
20180424125048 23 303 0.0 0.0 0.00 0.00 0.00 68 1016.7
20180424124046 23 351 0.0 0.0 0.00 0.00 0.00 70 1016.9
20180424123046 23 331 11.3 19.3 0.00 0.00 0.00 69 1017.1
20180424122046 23 290 9.7 19.3 0.00 0.00 0.00 70 1017.1
20180424121051 23 315 1.6 22.5 0.00 0.00 0.00 71 1016.9
20180424120046 23 323 0.0 0.0 0.00 0.00 0.00 69 1016.9
20180424115042 23 5 0.0 0.0 0.00 0.00 0.00 68 1017.0
20180424114042 23 320 0.0 0.0 0.00 0.00 0.00 69 1017.2
20180424113043 23 5 0.0 0.0 0.00 0.00 0.00 71 1017.2
20180424112044 22 270 0.0 0.0 0.00 0.00 0.00 72 1017.2
20180424111038 22 214 0.0 0.0 0.00 0.00 0.00 76 1017.3
20180424110036 22 277 0.0 0.0 0.00 0.00 0.00 77 1017.3
20180424105033 21 193 0.0 0.0 0.00 0.00 0.00 80 1017.5
20180424104036 20 131 0.0 0.0 0.00 0.00 0.00 84 1017.5
20180424103025 20 55 0.0 0.0 0.00 0.00 0.00 86 1017.6
20180424102011 19 92 0.0 0.0 0.00 0.00 0.00 89 1017.6
20180424101006 18 126 0.0 0.0 0.00 0.00 0.00 92 1017.6
20180424100002 17 117 0.0 0.0 0.00 0.00 0.00 94 1017.6
20180424094958 17 120 0.0 0.0 0.00 0.00 0.00 95 1017.7
20180424093940 16 99 0.0 0.0 0.00 0.00 0.00 95 1017.6
20180424092931 15 86 0.0 0.0 0.00 0.00 0.00 95 1017.6
20180424091930 15 19 0.0 0.0 0.00 0.00 0.00 95 1017.8
20180424090920 15 19 0.0 0.0 0.00 0.00 0.00 95 1017.6
20180424085917 15 0 0.0 0.0 0.00 0.00 0.00 95 1017.5
20180424084914 15 26 0.0 0.0 0.00 0.00 0.00 96 1017.6
20180424083910 14 347 0.0 0.0 0.00 0.00 0.00 95 1017.6
20180424082913 14 337 0.0 0.0 0.00 0.00 0.00 95 1017.5
20180424081902 14 313 0.0 0.0 0.00 0.00 0.00 95 1017.5
20180424080858 14 355 0.0 0.0 0.00 0.00 0.00 95 1017.4
20180424075846 13 345 0.0 0.0 0.00 0.00 0.00 95 1017.3
20180424074845 13 345 0.0 0.0 0.00 0.00 0.00 95 1017.3
20180424073830 13 345 0.0 0.0 0.00 0.00 0.00 95 1017.2
20180424072824 13 345 0.0 0.0 0.00 0.00 0.00 95 1017.0
20180424071815 13 345 0.0 0.0 0.00 0.00 0.00 95 1016.9
20180424070802 13 345 0.0 0.0 0.00 0.00 0.00 95 1016.9
20180424065759 13 344 0.0 0.0 0.00 0.00 0.00 95 1016.9
20180424064751 13 344 0.0 0.0 0.00 0.00 0.00 95 1016.7
20180424063743 13 338 0.0 0.0 0.00 0.00 0.00 95 1016.6
20180424062732 13 338 0.0 0.0 0.00 0.00 0.00 95 1016.4
20180424061728 13 30 0.0 0.0 0.00 0.00 0.00 95 1016.4
20180424060719 13 30 0.0 0.0 0.00 0.00 0.00 95 1016.3
20180424055710 13 259 0.0 0.0 0.00 0.00 0.00 95 1016.1
20180424054702 13 259 0.0 0.0 0.00 0.00 0.00 95 1016.0
20180424053654 13 259 0.0 0.0 0.00 0.00 0.00 95 1016.0
20180424052648 13 259 0.0 0.0 0.00 0.00 0.00 95 1016.0
20180424051637 13 259 0.0 0.0 0.00 0.00 0.00 95 1015.9
20180424050609 13 259 0.0 0.0 0.00 0.00 0.00 95 1016.0
20180424045602 13 259 0.0 0.0 0.00 0.00 0.00 95 1015.8
20180424044553 13 259 0.0 0.0 0.00 0.00 0.00 95 1015.9
20180424043545 13 259 0.0 0.0 0.00 0.00 0.00 95 1015.7
20180424042539 13 259 0.0 0.0 0.00 0.00 0.00 95 1015.9
20180424041534 12 259 0.0 0.0 0.00 0.00 0.00 95 1016.0
20180424040522 12 259 0.0 0.0 0.00 0.00 0.00 95 1015.9
20180424040418 12 259 0.0 0.0 0.00 0.00 0.00 94 1016.0
20180424040351 12 259 0.0 0.0 0.00 0.00 0.00 94 1016.0
20180424040237 12 259 0.0 0.0 0.00 0.00 0.00 93 1016.3
20180424040219 12 259 0.0 0.0 0.00 0.00 0.00 94 1016.0
20180424040156 12 259 0.0 0.0 0.00 0.00 0.00 94 1016.1
20180424040137 12 259 0.0 0.0 0.00 0.00 0.00 93 1016.2
20180424035726 12 259 0.0 0.0 0.00 0.00 0.00 94 1016.0
20180424035655 12 259 0.0 0.0 0.00 0.00 0.00 94 1016.2
20180424035618 12 259 0.0 0.0 0.00 0.00 0.00 94 1016.0
20180424035539 12 259 0.0 0.0 0.00 0.00 0.00 94 1015.9
20180424035521 12 259 0.0 0.0 0.00 0.00 0.00 95 1016.0
20180424035459 12 259 0.0 0.0 0.00 0.00 0.00 94 1015.9
20180424035455 12 259 0.0 0.0 0.00 0.00 0.00 95 1016.0
20180424035443 12 259 0.0 0.0 0.00 0.00 0.00 94 1016.1
20180424035424 11 259 0.0 0.0 0.00 0.00 0.00 94 1016.1
20180424012316 12 259 0.0 0.0 0.00 0.00 0.00 93 1016.3
20180424011304 12 259 0.0 0.0 0.00 0.00 0.00 93 1016.4
20180424010257 12 259 0.0 0.0 0.00 0.00 0.00 93 1016.4
20180424005249 12 259 0.0 0.0 0.00 0.00 0.00 93 1016.5
20180424004245 12 259 0.0 0.0 0.00 0.00 0.00 93 1016.6
20180424003233 12 259 0.0 0.0 0.00 0.00 0.00 93 1016.6
20180424002225 12 259 0.0 0.0 0.00 0.00 0.00 93 1016.6
20180424001216 12 259 0.0 0.0 0.00 0.00 0.00 92 1016.6
20180424000208 13 259 0.0 0.0 0.00 0.00 0.00 92 1016.6
20180423235202 13 259 0.0 0.0 0.00 0.00 0.00 92 1016.6
20180423234151 13 259 0.0 0.0 0.00 0.00 0.00 92 1016.6
20180423233144 13 259 0.0 0.0 0.00 0.00 0.00 92 1016.6
20180423232136 13 259 0.0 0.0 0.00 0.00 0.00 92 1016.7
20180423231133 13 259 0.0 0.0 0.00 0.00 0.00 92 1016.7
20180423230120 13 259 0.0 0.0 0.00 0.00 0.00 92 1016.9
20180423225112 13 259 0.0 0.0 0.00 0.00 0.00 91 1016.7
20180423224055 13 259 0.0 0.0 0.00 0.00 0.00 91 1016.7
20180423223054 13 259 0.0 0.0 0.00 0.00 0.00 91 1016.7
20180423222041 14 259 0.0 0.0 0.00 0.00 0.00 91 1017.0
20180423221038 14 259 0.0 0.0 0.00 0.00 0.00 90 1016.9
20180423220033 14 259 0.0 0.0 0.00 0.00 0.00 90 1017.0
20180423215022 14 259 0.0 0.0 0.00 0.00 0.00 89 1017.0
20180423214013 15 259 0.0 0.0 0.00 0.00 0.00 89 1017.1
20180423213009 15 259 0.0 0.0 0.00 0.00 0.00 89 1017.1
20180423212010 15 259 0.0 0.0 0.00 0.00 0.00 88 1017.1
20180423211008 15 259 0.0 0.0 0.00 0.00 0.00 88 1017.1
20180423210001 15 256 0.0 0.0 0.00 0.00 0.00 87 1017.1
20180423204953 15 265 0.0 0.0 0.00 0.00 0.00 86 1017.0
20180423203952 16 284 0.0 0.0 0.00 0.00 0.00 85 1016.7
20180423202947 16 284 0.0 0.0 0.00 0.00 0.00 83 1016.6
20180423201944 16 284 0.0 0.0 0.00 0.00 0.00 82 1016.4
20180423200938 17 300 0.0 0.0 0.00 0.00 0.00 80 1016.2
20180423195925 18 276 0.0 0.0 0.00 0.00 0.00 77 1016.1
20180423194924 18 341 0.0 0.0 0.00 0.00 0.00 76 1016.0
20180423193910 18 318 0.0 0.0 0.00 0.00 0.00 76 1015.6
20180423192907 19 308 0.0 0.0 0.00 0.00 0.00 75 1015.5
20180423191833 19 300 0.0 0.0 0.00 0.00 0.00 74 1015.4
20180423190832 20 309 0.0 0.0 0.00 0.00 0.00 73 1015.3
20180423185827 20 297 0.0 0.0 0.00 0.00 0.00 73 1015.3
20180423184827 20 290 0.0 0.0 0.00 0.00 0.00 71 1015.4
20180423183827 21 309 0.0 0.0 0.00 0.00 0.00 68 1015.5
20180423182819 21 329 0.0 0.0 0.00 0.00 0.00 67 1015.7
20180423181807 21 323 0.0 0.0 0.00 0.00 0.00 65 1015.6
20180423180802 22 327 0.0 1.6 0.00 0.00 0.00 64 1015.5
20180423175757 22 355 0.0 0.0 0.00 0.00 0.00 63 1015.5
20180423174757 22 328 0.0 0.0 0.00 0.00 0.00 60 1015.4
20180423173757 22 313 0.0 17.7 0.00 0.00 0.00 60 1015.4
20180423172756 22 305 0.0 1.6 0.00 0.00 0.00 60 1015.5
20180423171752 22 305 0.0 0.0 0.00 0.00 0.00 60 1015.3
20180423170751 23 344 0.0 1.6 0.00 0.00 0.00 58 1015.4
20180423165750 23 330 0.0 0.0 0.00 0.00 0.00 59 1015.4
20180423164749 23 5 0.0 0.0 0.00 0.00 0.00 60 1015.4
20180423163749 23 300 0.0 0.0 0.00 0.00 0.00 62 1015.4
20180423162748 22 270 0.0 0.0 0.00 0.00 0.00 65 1015.4
20180423161745 23 300 0.0 0.0 0.00 0.00 0.00 63 1015.3
20180423160745 23 5 0.0 0.0 0.00 0.00 0.00 64 1015.2
20180423155745 23 355 0.0 0.0 0.00 0.00 0.00 62 1015.1